Location: Great Malvern
(52.1167°N, 2.3167°W)
Time: 02:58:05
(UTC+00:00)

ATLAS 3B R/B - Pass Details

Date: 18 September 2020
Orbit: 1016 x 1179 km, 63.8° (Epoch: 04 October)

Event Time Altitude Azimuth Distance (km) Brightness Sun altitude
Rises 19:28:24 0° 305° (NW) 3,791 7.2 -11.7°
Reaches altitude 10° 19:31:13 10° 314° (NW) 2,853 6.1 -12.1°
Maximum altitude 19:37:28 38° 21° (NNE) 1,563 3.6 -13.0°
Enters shadow 19:42:49 15° 84° (E) 2,604 4.2 -13.8°
